Location: Kernascl�den
(48.0062°N, 3.3198°W)
Time: 21:09:38
(UTC+00:00)

NOSS 3-1 (A) - Pass Details

Date: 21 January 2021
Orbit: 735 x 1477 km, 63.4° (Epoch: 02 March)

Event Time Altitude Azimuth Distance (km) Brightness Sun altitude
Rises 19:09:09 0° 318° (NW) 3,840 7.1 -21.8°
Reaches altitude 10° 19:11:41 10° 322° (NW) 2,984 6.4 -22.3°
Maximum altitude 19:18:52 60° 43° (NE) 1,425 4.0 -23.5°
Enters shadow 19:21:43 41° 101° (E) 1,826 4.4 -23.9°
